TimeCDT,TemperatureF,Dew PointF,Humidity,Sea Level PressureIn,VisibilityMPH,Wind Direction,Wind SpeedMPH,Gust SpeedMPH,PrecipitationIn,Events,Conditions,WindDirDegrees,DateUTC
12:53 AM,50.0,46.9,89,29.99,10.0,South,6.9,-,N/A,,Clear,190,2013-04-28 05:53:00
1:53 AM,51.1,48.0,89,29.97,8.0,South,8.1,-,N/A,,Clear,190,2013-04-28 06:53:00
2:53 AM,50.0,48.0,93,29.96,6.0,South,6.9,-,N/A,,Clear,180,2013-04-28 07:53:00
3:53 AM,50.0,46.9,89,29.95,7.0,South,6.9,-,0.01,,Clear,180,2013-04-28 08:53:00
4:53 AM,48.0,45.0,89,29.95,5.0,South,6.9,-,N/A,,Clear,170,2013-04-28 09:53:00
5:53 AM,48.9,46.0,90,29.94,7.0,South,5.8,-,N/A,,Clear,180,2013-04-28 10:53:00
6:53 AM,48.0,46.0,93,29.94,6.0,South,6.9,-,N/A,,Clear,180,2013-04-28 11:53:00
7:53 AM,51.8,48.2,88,29.95,9.0,South,10.4,-,N/A,,Clear,180,2013-04-28 12:53:00
8:40 AM,53.6,50.0,88,29.95,10.0,South,13.8,-,N/A,,Mostly Cloudy,190,2013-04-28 13:40:00
8:53 AM,55.0,51.1,86,29.94,10.0,SSW,15.0,-,N/A,,Mostly Cloudy,200,2013-04-28 13:53:00
9:53 AM,55.9,52.0,87,29.92,9.0,South,10.4,20.7,N/A,,Overcast,180,2013-04-28 14:53:00
10:21 AM,59.0,53.6,82,29.92,9.0,South,15.0,-,N/A,,Scattered Clouds,170,2013-04-28 15:21:00
10:53 AM,63.0,54.0,72,29.90,10.0,South,11.5,-,N/A,,Partly Cloudy,180,2013-04-28 15:53:00
11:53 AM,69.1,55.0,61,29.87,10.0,South,13.8,-,N/A,,Clear,180,2013-04-28 16:53:00
12:53 PM,73.0,55.0,53,29.85,10.0,South,12.7,-,N/A,,Clear,180,2013-04-28 17:53:00
1:53 PM,75.0,55.9,51,29.83,10.0,South,17.3,24.2,N/A,,Clear,180,2013-04-28 18:53:00
2:53 PM,78.1,55.0,45,29.80,10.0,South,12.7,21.9,N/A,,Clear,180,2013-04-28 19:53:00
3:53 PM,80.1,54.0,40,29.77,10.0,South,16.1,24.2,N/A,,Clear,190,2013-04-28 20:53:00
4:53 PM,80.1,55.0,42,29.74,10.0,South,12.7,21.9,N/A,,Clear,180,2013-04-28 21:53:00
5:53 PM,75.9,57.9,54,29.73,10.0,South,10.4,-,N/A,,Clear,170,2013-04-28 22:53:00
6:53 PM,75.0,57.9,55,29.71,10.0,South,10.4,-,N/A,,Clear,170,2013-04-28 23:53:00
7:53 PM,70.0,57.0,63,29.70,10.0,South,10.4,-,N/A,,Clear,170,2013-04-29 00:53:00
8:53 PM,66.0,55.0,68,29.70,10.0,South,10.4,-,N/A,,Clear,170,2013-04-29 01:53:00
9:53 PM,66.9,54.0,63,29.70,10.0,South,13.8,-,N/A,,Clear,170,2013-04-29 02:53:00
10:53 PM,66.0,53.1,63,29.70,10.0,South,11.5,-,N/A,,Clear,170,2013-04-29 03:53:00
11:53 PM,64.9,53.1,65,29.70,10.0,South,11.5,-,N/A,,Clear,180,2013-04-29 04:53:00